Regional Weather Roundup
Issued by NWS

Home | Current Version | Previous Version | Text Only | Print | Product List | Glossary On
Versions: 1 2 3 4 5 6 7 8 9 10 11 12 13 14 15 16 17 18 19 20 21 22 23 24 25 26 27 28 29 30 31 32 33 34 35 36 37 38 39 40 41 42 43 44 45 46 47 48 49 50
109
ASUS45 KTFX 302010
RWRMT
MONTANA REGIONAL WEATHER ROUNDUP
NATIONAL WEATHER SERVICE GREAT FALLS MT
200 PM MDT THU MAR 30 2017

NOTE: "FAIR" INDICATES FEW OR NO CLOUDS BELOW 12000 FEET WITH NO
SIGNIFICANT WEATHER AND/OR OBSTRUCTIONS TO VISIBILITY.

MTZ001>007-043-302100-
WEST OF THE DIVIDE

CITY           SKY/WX    TMP DP  RH WIND       PRES   REMARKS
KALISPELL      CLOUDY    50  33  52 N7        29.83R
MISSOULA       PTSUNNY   52  29  41 NW15      29.81S
BUTTE          CLOUDY    45  30  55 S6        29.73S
MULLAN PASS    CLOUDY    31  30  96 VRB6      29.86R FOG     WCI  25
ANACONDA         N/A     48  23  37 N10G20    29.73F
DEER LODGE       N/A     48  27  43 NW14G21   29.77S
EUREKA           N/A     52  32  46 S5        29.85S
HAMILTON         N/A     48  28  46 N13       29.78S
PLAINS           N/A     50  28  42 W17       29.88R
RONAN            N/A     52  29  41 SW6       29.89R
$$

MTZ008-052>055-302100-
SOUTHWEST MONTANA

CITY           SKY/WX    TMP DP  RH WIND       PRES   REMARKS
BOZEMAN        CLOUDY    50  38  63 N3        29.71F
DILLON         CLOUDY    47  36  65 NE14      29.69F
W YELLOWSTONE  CLOUDY    39  34  81 CALM      29.71F
ENNIS          CLOUDY    45  37  76 CALM      29.75F
THREE FORKS      N/A     52  48  86 N1        29.75F
TWIN BRIDGES     N/A     50  34  54 N16       29.72F
$$

MTZ009-010-012-014-046-048-049-054-302100-
EAST SLOPES AND CENTRAL MONTANA

CITY           SKY/WX    TMP DP  RH WIND       PRES   REMARKS
CUT BANK       SUNNY     55  23  28 W16G26    29.73R
GREAT FALLS    PTSUNNY   59  27  29 MISG      29.71S
MALMSTROM AFB  MOSUNNY   58  30  34 E7        29.72S
HELENA         CLOUDY    58  28  32 VRB6      29.71F
AUGUSTA          N/A     53  21  28 W8        29.73S
CHOTEAU          N/A     57  23  26 NW7       29.75R
CONRAD           N/A     56  26  31 SW6       29.78R
RAYNESFORD       N/A     54  30  40 SE3       29.72F
$$

MTZ011-013-016-021-045-047-050-051-302100-
NORTH CENTRAL MONTANA

CITY           SKY/WX    TMP DP  RH WIND       PRES   REMARKS
HAVRE          MOSUNNY   61  33  35 CALM      29.70S
LEWISTOWN      CLOUDY    50  33  52 CALM      29.73F
N BAR RANCH      N/A     46  37  71 CALM      29.76F
CHINOOK          N/A     61  32  33 CALM      29.70F
FORT BENTON      N/A     61  30  31 MISG      29.72F
GEYSER         PTSUNNY   53  32  44 E5        29.72F
JUDITH GAP     PTSUNNY   50  34  54 N10G17    29.72F
STANFORD       PTSUNNY   51  34  52 E3        29.73S
$$

MTZ017>020-022>027-061-062-302100-
NORTHEAST MONTANA

CITY           SKY/WX    TMP DP  RH WIND       PRES   REMARKS
GLASGOW        CLOUDY    63  32  31 N9        29.69S
JORDAN           N/A     57  37  47 N7        29.71R
SIDNEY         PTSUNNY   66  36  32 CALM      29.66F
WOLF POINT     MOSUNNY   67  35  30 MISG      29.66F
MALTA          SUNNY     61  32  33 VRB3G12   29.69S
PLENTYWOOD       N/A     63  34  34 SE9       29.67F
POPLAR           N/A     64  36  34 SW3       29.67S
SCOBEY           N/A     63  31  30 S3        29.69R
$$

MTZ028>42-056>058-302100-
SOUTHCENTRAL AND SOUTHEAST MONTANA

CITY           SKY/WX    TMP DP  RH WIND       PRES   REMARKS
BAKER          LGT RAIN  53  43  68 S7        29.71R
BILLINGS       CLOUDY    48  42  80 N10       29.74S
LIVINGSTON     CLOUDY    50  36  58 E8        29.72F
MILES CITY     LGT RAIN  55  43  63 SW12      29.70R
EKALAKA          N/A     53  40  61 W6        29.73R
FORSYTH          N/A     50  48  93 W10       29.71S
LAUREL           N/A     47  36  65 CALM      29.75S
$$

REGIONAL REPORTS...DAKOTAS

CITY           SKY/WX    TMP DP  RH WIND       PRES   REMARKS
WILLISTON      CLOUDY    63  41  44 SE9       29.69S
MINOT          CLOUDY    55  38  52 S14       29.75F
DICKINSON      CLOUDY    54  35  48 S17G25    29.71S
BEACH          CLOUDY    59  37  44 S14       29.72S
TIOGA          CLOUDY    54  43  66 S14       29.72S
WATFORD CITY     N/A     59  43  55 S12       29.69S
BISMARCK       CLOUDY    56  36  47 S16       29.80F
GRAND FORKS    MOSUNNY   53  43  68 S15       29.87F
FARGO          PTSUNNY   54  37  52 VRB6      29.86F
BUFFALO SD       N/A     59  39  47 SE13G20   29.65S
RAPID CITY     CLOUDY    52  36  54 SE13      29.74S
$$

REGIONAL REPORTS...WYOMING/IDAHO/WASHINGTON

CITY           SKY/WX    TMP DP  RH WIND       PRES   REMARKS
GILLETTE       MOSUNNY   57  37  47 E7        29.66F
SHERIDAN       CLOUDY    50  42  74 NE8       29.71F
BUFFALO WY     CLOUDY    52  37  56 N13G25    29.71S
CODY           CLOUDY    41  37  86 N15       29.72S
YELLOWSTONE LA   N/A     34  34 100 CALM      29.74F
IDAHO FALLS    CLOUDY    51  40  65 E5        29.65F
SALMON         CLOUDY    46  36  66 N5        29.68F
BOISE          LGT RAIN  36  36 100 NW25G38   29.76R FOG     WCI  24
SPOKANE        PTSUNNY   46  35  65 CALM      29.96R
$$

REGIONAL REPORTS...ALBERTA

CITY           SKY/WX    TMP DP  RH WIND       PRES   REMARKS
EDMONTON       CLOUDY    37  34  87 NE8       29.89R FOG     WCI  31
CALGARY        PTSUNNY   48  28  46 N17       29.79R
LETHBRIDGE     PTSUNNY   57  25  28 NW13      29.72R
WATERTON GATE    N/A     50  21  32 SW18G25     N/A
MILK RIVER       N/A     59  18  20 W12         N/A
$$

REGIONAL REPORTS...SASKATCHEWAN

CITY           SKY/WX    TMP DP  RH WIND       PRES   REMARKS
SWIFT CURRENT  SUNNY     57  32  38 N3        29.69R
REGINA         PTSUNNY   59  30  33 SE8       29.73R
SASKATOON      CLOUDY    39  34  81 NE16      29.86R WCI  30
CYPRESS HILLS    N/A     54  27  35 NW8G23      N/A
VAL MARIE        N/A     63  25  23 NW10        N/A
ROCKGLEN         N/A     59  28  31 NW5         N/A
ASSINIBOIA       N/A     41  37  87 NE7         N/A
$$




USA.gov is the U.S. government's official web portal to all federal, state and local government web resources and services.